Flag for Russia Weather past 2 weeks in Barnaul, Russia

Now
21 °F

Snow flurries. Broken clouds.


Feels Like: 21 °F
Forecast: 10 / 23 °F
Wind: 1 mph from North

Location: Barnaul Airport

Current Time: Mar 28, 2015 at 7:17:24 PM

Latest Report: Mar 28, 2015 at 6:30 PM


Visibility: N/A

Pressure: 30.18 "Hg

Humidity: 74%

Dew point: 14 °F

Location of BarnaulLocation

Historic Weather in Barnaul — Graph

°F

Barnaul temperature yesterday

Maximum temperature yesterday: 32 °F (at 11:00 AM)
Minimum temperature yesterday: 23 °F (at 11:30 PM)
Average temperature yesterday: 29 °F

Past Weeks' High & Low Weather Summary

 TemperatureHumidityPressure
High43 °F (Mar 22, 2:30 PM)93% (Mar 13, 6:30 PM)30.33 "Hg (Mar 13, 6:30 PM)
Low16 °F (Mar 26, 2:00 AM)29% (Mar 22, 2:30 PM)29.36 "Hg (Mar 24, 7:00 PM)
Average28 °F77%30.08 "Hg
* Reported Mar 13 6:00 PM — Mar 28 6:00 PM, Barnaul, Weather by CustomWeather, © 2015

Note: Actual official high and low records may vary slightly from our data, if they occured in-between our weather recording intervals... More about our weather records

Advertising

Barnaul weather history for previous 24 hours

 ConditionsComfort  
Time TempWeatherWind HumidityBarometerVisibility
6:00 PM
Sat, Mar 28
23 °FSnow flurries. Broken clouds.3 mph74%30.15 "Hg6 mi
5:30 PM23 °FSnow flurries. Broken clouds.1 mph68%30.15 "HgN/A
5:00 PM23 °FSnow flurries. Partly sunny.6 mph74%30.15 "Hg6 mi
4:30 PM23 °FPartly sunny.8 mph74%30.15 "HgN/A
4:00 PM23 °FSnow flurries. Partly sunny.6 mph74%30.15 "HgN/A
3:30 PM23 °FBroken clouds.6 mph68%30.15 "HgN/A
3:00 PM23 °FBroken clouds.6 mph68%30.15 "HgN/A
2:30 PM23 °FBroken clouds.8 mph68%30.15 "HgN/A
2:00 PM23 °FBroken clouds.8 mph63%30.15 "HgN/A
1:30 PM23 °FSnow flurries. Partly sunny.8 mph68%30.15 "Hg5 mi
1:00 PM23 °FBroken clouds.8 mph63%30.15 "HgN/A
12:30 PM23 °FBroken clouds.6 mph68%30.12 "HgN/A
12:00 PM21 °FMore clouds than sun.8 mph74%30.15 "HgN/A
11:30 AM21 °FLight snow. More clouds than sun.10 mph74%30.15 "Hg3 mi
11:00 AM21 °FSunny.10 mph68%30.15 "Hg10 mi
10:30 AM21 °FLight snow. Overcast.10 mph68%30.12 "HgN/A
10:00 AM21 °FSunny.10 mph68%30.12 "Hg10 mi
9:30 AM19 °FSunny.8 mph73%30.12 "Hg10 mi
9:00 AM19 °FSunny.8 mph73%30.09 "Hg10 mi
8:30 AM19 °FSunny.6 mph73%30.09 "Hg10 mi
8:00 AM19 °FSunny.8 mph73%30.09 "Hg10 mi
7:30 AM19 °FSunny.6 mph73%30.09 "Hg10 mi
7:00 AM18 °FSunny.6 mph79%30.07 "Hg10 mi
6:30 AM19 °FSunny.8 mph73%30.07 "Hg10 mi
6:00 AM19 °FClear.8 mph73%30.07 "Hg10 mi
5:30 AM19 °FClear.8 mph73%30.04 "Hg10 mi
5:00 AM19 °FClear.8 mph73%30.04 "Hg10 mi
4:30 AM19 °FClear.8 mph73%30.04 "Hg10 mi
4:00 AM21 °FClear.10 mph68%30.04 "Hg10 mi
3:30 AM21 °FClear.13 mph68%30.04 "Hg10 mi
3:00 AM21 °FClear.10 mph68%30.04 "Hg10 mi
2:30 AM21 °FClear.10 mph68%30.04 "Hg10 mi
2:00 AM21 °FClear.10 mph74%30.04 "Hg10 mi
1:30 AM21 °FClear.8 mph74%30.04 "Hg10 mi
1:00 AM23 °FClear.8 mph68%30.04 "Hg10 mi
12:30 AM23 °FClear.8 mph68%30.07 "Hg10 mi
12:00 AM23 °FPassing clouds.8 mph68%30.07 "HgN/A
11:30 PM
Fri, Mar 27
23 °FPassing clouds.8 mph74%30.07 "HgN/A
11:00 PM25 °FPassing clouds.8 mph69%30.07 "HgN/A
10:30 PM25 °FPassing clouds.6 mph63%30.07 "HgN/A
10:00 PM25 °FPassing clouds.6 mph63%30.07 "HgN/A
9:30 PM25 °FPassing clouds.6 mph69%30.09 "HgN/A
9:00 PM25 °FPassing clouds.6 mph63%30.09 "HgN/A
8:30 PM27 °FOvercast.6 mph54%30.09 "HgN/A
8:00 PM27 °FOvercast.8 mph54%30.09 "HgN/A
7:30 PM27 °FClear.6 mph64%30.12 "Hg10 mi
7:00 PM27 °FClear.6 mph64%30.12 "Hg10 mi
Weather by CustomWeather, © 2015

See weather overviewHow to use our weather pages